Location: Nitra
(0.0000°N, 18.0833°E)
Time: 08:59:36
(UTC+01:00)

Cosmos 1850 Rocket - Pass Details

Date: 25 September 2022
Orbit: 753 x 785 km, 74.0° (Epoch: 28 November)

Event Time Altitude Azimuth Distance (km) Brightness Sun altitude
Rises 19:06:19 0° 180° (S) 3,203 7.2 -6.8°
Reaches altitude 10° 19:08:47 10° 174° (S) 2,275 6.4 -7.4°
Maximum altitude 19:13:40 44° 102° (ESE) 1,038 4.3 -8.6°
Drops below altitude 10° 19:18:32 10° 31° (NNE) 2,270 6.1 -9.8°
Sets 19:20:59 0° 25° (NNE) 3,195 7.0 -10.4°
